When you browse on this site, cookies collect data to enhance your experience and personalize the content and advertising you see.
Visit our Privacy Policy to learn more. By continuing to use the site, you agree to this use of cookies and data.

Hourly Weather Kitzbuhel

Today, 13 July, Monday

Time Temperature Precipitation Wind Pressure Humidity
00:00 +9°C° 0 mm 1 mps 682 mmHg 93%
01:00 +9°C° 0 mm 1 mps 682 mmHg 92%
02:00 +9°C° 0 mm 1 mps 681 mmHg 92%
03:00 +9°C° 0 mm 1 mps 681 mmHg 92%
04:00 +8°C° 0 mm 1 mps 680 mmHg 92%
05:00 +10°C° 0 mm 1 mps 681 mmHg 84%
06:00 +11°C° 0 mm 0 mps 681 mmHg 77%
07:00 +14°C° 0 mm 0 mps 682 mmHg 69%
08:00 +16°C° 0 mm 1 mps 682 mmHg 62%
09:00 +19°C° 0 mm 1 mps 682 mmHg 55%
10:00 +21°C° 0 mm 1 mps 682 mmHg 48%
11:00 +21°C° 0 mm 2 mps 682 mmHg 45%
12:00 +23°C° 0 mm 2 mps 682 mmHg 41%
13:00 +23°C° 0 mm 2 mps 682 mmHg 38%
14:00 +23°C° 0 mm 2 mps 681 mmHg 40%
15:00 +23°C° 0 mm 2 mps 681 mmHg 43%
16:00 +21°C° 0 mm 2 mps 680 mmHg 45%
17:00 +20°C° 0 mm 2 mps 680 mmHg 56%
18:00 +18°C° 0 mm 2 mps 680 mmHg 67%
19:00 +18°C° 0 mm 1 mps 679 mmHg 78%
20:00 +15°C° 0 mm 1 mps 679 mmHg 83%
21:00 +13°C° 0 mm 1 mps 679 mmHg 89%
22:00 +10°C° 0 mm 0 mps 679 mmHg 94%
23:00 +10°C° 0 mm 0 mps 678 mmHg 94%

Tomorrow, 14 July, Tuesday

Time Temperature Precipitation Wind Pressure Humidity
00:00 +10°C° 0 mm 0 mps 678 mmHg 94%
01:00 +11°C° 0 mm 1 mps 678 mmHg 94%
02:00 +10°C° 0 mm 1 mps 678 mmHg 95%
03:00 +10°C° 0 mm 1 mps 677 mmHg 95%
04:00 +10°C° 0 mm 1 mps 677 mmHg 95%
05:00 +11°C° 0 mm 0 mps 677 mmHg 89%
06:00 +12°C° 0 mm 0 mps 678 mmHg 84%
07:00 +14°C° 0 mm 0 mps 678 mmHg 78%
08:00 +16°C° 0 mm 0 mps 678 mmHg 69%
09:00 +19°C° 0 mm 1 mps 678 mmHg 61%
10:00 +21°C° 0 mm 1 mps 678 mmHg 52%
11:00 +21°C° 0.1 mm 2 mps 678 mmHg 51%
12:00 +21°C° 0.1 mm 2 mps 678 mmHg 50%
13:00 +21°C° 0.1 mm 2 mps 678 mmHg 49%
14:00 +21°C° 0.6 mm 2 mps 677 mmHg 55%
15:00 +20°C° 0.6 mm 2 mps 677 mmHg 61%
16:00 +20°C° 0.6 mm 1 mps 677 mmHg 68%
17:00 +19°C° 0.5 mm 1 mps 676 mmHg 74%
18:00 +18°C° 0.5 mm 1 mps 676 mmHg 79%
19:00 +16°C° 0.5 mm 1 mps 676 mmHg 85%
20:00 +15°C° 0 mm 1 mps 676 mmHg 87%
21:00 +14°C° 0 mm 1 mps 676 mmHg 89%
22:00 +12°C° 0 mm 1 mps 676 mmHg 91%
23:00 +12°C° 0 mm 1 mps 676 mmHg 91%

Day after tomorrow, 15 July, Wednesday

Time Temperature Precipitation Wind Pressure Humidity
00:00 +12°C° 0 mm 1 mps 676 mmHg 91%
01:00 +12°C° 0 mm 1 mps 676 mmHg 90%
02:00 +12°C° 0.2 mm 1 mps 675 mmHg 90%
03:00 +13°C° 0.2 mm 1 mps 675 mmHg 89%
04:00 +13°C° 0.2 mm 1 mps 675 mmHg 89%
05:00 +13°C° 0.8 mm 1 mps 675 mmHg 90%
06:00 +13°C° 0.8 mm 1 mps 675 mmHg 92%
07:00 +13°C° 0.8 mm 1 mps 675 mmHg 93%
08:00 +14°C° 0.8 mm 1 mps 675 mmHg 92%
09:00 +14°C° 0.8 mm 1 mps 675 mmHg 91%
10:00 +15°C° 0.8 mm 1 mps 676 mmHg 90%
11:00 +15°C° 0.6 mm 1 mps 676 mmHg 90%
12:00 +14°C° 0.6 mm 0 mps 676 mmHg 91%
13:00 +14°C° 0.6 mm 0 mps 676 mmHg 91%
14:00 +14°C° 0.7 mm 0 mps 676 mmHg 93%
15:00 +14°C° 0.7 mm 1 mps 676 mmHg 95%
16:00 +14°C° 0.7 mm 1 mps 676 mmHg 97%
17:00 +13°C° 0.9 mm 1 mps 676 mmHg 97%
18:00 +13°C° 0.9 mm 1 mps 676 mmHg 97%
19:00 +13°C° 0.9 mm 1 mps 676 mmHg 97%
20:00 +12°C° 0.1 mm 1 mps 676 mmHg 96%
21:00 +11°C° 0.1 mm 1 mps 676 mmHg 96%
22:00 +11°C° 0.1 mm 1 mps 676 mmHg 95%
23:00 +11°C° 0 mm 1 mps 676 mmHg 95%

16 July, Thursday

Time Temperature Precipitation Wind Pressure Humidity
00:00 +10°C° 0 mm 1 mps 676 mmHg 95%
01:00 +10°C° 0 mm 1 mps 676 mmHg 94%
02:00 +9°C° 0.3 mm 0 mps 676 mmHg 95%
03:00 +9°C° 0.3 mm 0 mps 676 mmHg 95%
04:00 +9°C° 0.3 mm 0 mps 676 mmHg 96%
05:00 +9°C° 0.9 mm 0 mps 676 mmHg 96%
06:00 +10°C° 0.9 mm 0 mps 676 mmHg 97%
07:00 +12°C° 0.9 mm 1 mps 676 mmHg 97%
08:00 +12°C° 1.2 mm 1 mps 677 mmHg 98%
09:00 +12°C° 1.2 mm 1 mps 677 mmHg 98%
10:00 +12°C° 1.2 mm 1 mps 677 mmHg 98%
11:00 +12°C° 0.7 mm 1 mps 677 mmHg 95%
12:00 +12°C° 0.7 mm 1 mps 677 mmHg 93%
13:00 +12°C° 0.7 mm 1 mps 677 mmHg 91%
14:00 +14°C° 0.1 mm 1 mps 677 mmHg 83%
15:00 +15°C° 0.1 mm 1 mps 678 mmHg 75%
16:00 +18°C° 0.1 mm 1 mps 678 mmHg 67%
17:00 +16°C° 0.4 mm 1 mps 678 mmHg 76%
18:00 +15°C° 0.4 mm 1 mps 677 mmHg 85%
19:00 +13°C° 0.4 mm 1 mps 677 mmHg 93%
20:00 +12°C° 0.2 mm 1 mps 677 mmHg 94%
21:00 +11°C° 0.2 mm 1 mps 677 mmHg 94%
22:00 +10°C° 0.2 mm 0 mps 678 mmHg 94%
23:00 +9°C° 0.1 mm 0 mps 677 mmHg 94%

17 July, Friday

Time Temperature Precipitation Wind Pressure Humidity
00:00 +10°C° 0.1 mm 1 mps 677 mmHg 95%
01:00 +10°C° 0.1 mm 1 mps 677 mmHg 95%
02:00 +9°C° 0.2 mm 1 mps 677 mmHg 95%
03:00 +9°C° 0.2 mm 1 mps 677 mmHg 95%
04:00 +9°C° 0.2 mm 1 mps 677 mmHg 95%
05:00 +10°C° 0.3 mm 1 mps 677 mmHg 95%
06:00 +11°C° 0.3 mm 1 mps 677 mmHg 95%
07:00 +11°C° 0.3 mm 1 mps 678 mmHg 94%
08:00 +12°C° 0.6 mm 1 mps 678 mmHg 94%
09:00 +12°C° 0.6 mm 1 mps 678 mmHg 93%
10:00 +12°C° 0.6 mm 1 mps 678 mmHg 93%
11:00 +13°C° 1.1 mm 1 mps 678 mmHg 91%
12:00 +14°C° 1.1 mm 1 mps 678 mmHg 88%
13:00 +15°C° 1.1 mm 1 mps 678 mmHg 86%
14:00 +15°C° 0.9 mm 1 mps 678 mmHg 85%
15:00 +15°C° 0.9 mm 1 mps 678 mmHg 85%
16:00 +15°C° 0.9 mm 1 mps 678 mmHg 85%
17:00 +14°C° 0.5 mm 1 mps 677 mmHg 88%
18:00 +13°C° 0.5 mm 1 mps 677 mmHg 90%
19:00 +12°C° 0.5 mm 1 mps 677 mmHg 93%
20:00 +11°C° 0 mm 1 mps 678 mmHg 94%
21:00 +10°C° 0 mm 1 mps 678 mmHg 94%
22:00 +8°C° 0 mm 1 mps 678 mmHg 94%
23:00 +8°C° 0 mm 1 mps 678 mmHg 95%

18 July, Saturday

Time Temperature Precipitation Wind Pressure Humidity
00:00 +8°C° 0 mm 1 mps 678 mmHg 95%
01:00 +7°C° 0 mm 1 mps 677 mmHg 95%
02:00 +7°C° 0 mm 1 mps 677 mmHg 95%
03:00 +7°C° 0 mm 1 mps 677 mmHg 94%
04:00 +7°C° 0 mm 1 mps 677 mmHg 94%
05:00 +9°C° 0 mm 1 mps 677 mmHg 93%
06:00 +10°C° 0 mm 1 mps 677 mmHg 92%
07:00 +10°C° 0 mm 0 mps 678 mmHg 91%
08:00 +12°C° 0.2 mm 1 mps 678 mmHg 86%
09:00 +14°C° 0.2 mm 1 mps 678 mmHg 80%
10:00 +15°C° 0.2 mm 1 mps 678 mmHg 75%
11:00 +16°C° 0.4 mm 1 mps 678 mmHg 74%
12:00 +16°C° 0.4 mm 2 mps 678 mmHg 72%
13:00 +17°C° 0.4 mm 2 mps 678 mmHg 71%
14:00 +17°C° 0.6 mm 2 mps 677 mmHg 72%
15:00 +17°C° 0.6 mm 2 mps 677 mmHg 73%
16:00 +18°C° 0.6 mm 1 mps 677 mmHg 74%
17:00 +16°C° 0.1 mm 1 mps 677 mmHg 79%
18:00 +15°C° 0.1 mm 1 mps 677 mmHg 84%
19:00 +14°C° 0.1 mm 1 mps 677 mmHg 89%
20:00 +13°C° 0 mm 1 mps 676 mmHg 91%
21:00 +11°C° 0 mm 0 mps 676 mmHg 94%
22:00 +9°C° 0 mm 0 mps 676 mmHg 96%
23:00 +9°C° 0 mm 0 mps 676 mmHg 96%
Show more